Location: Newark
(46.9000°N, 28.3500°E)
Time: 23:44:21
(UTC+00:00)

Tiros 1 - All Passes

Search period start: 19 August 2019 00:00
Search period end: 29 August 2019 00:00
Orbit: 630 x 664 km, 48.4° (Epoch: 19 August)

Date Brightness Start Highest point End Pass type
(mag) Time Alt. Az. Time Alt. Az. Time Alt. Az.
19 Aug - 01:27:53 10° W 01:32:34 79° N 01:37:17 10° ENE visible
19 Aug - 03:10:14 10° WNW 03:14:57 82° N 03:19:42 10° E daylight
19 Aug - 04:52:32 10° WNW 04:57:01 44° SSW 05:01:32 10° SE daylight
19 Aug - 06:36:53 10° WSW 06:38:21 11° SW 06:39:50 10° SSW daylight
19 Aug - 22:30:53 10° SSW 22:34:41 25° SE 22:38:31 10° E visible
20 Aug - 00:11:47 10° WSW 00:16:26 77° SSE 00:21:07 10° ENE visible
20 Aug - 01:54:04 10° W 01:58:45 73° N 02:03:28 10° E visible
20 Aug - 03:36:21 10° WNW 03:41:03 74° SSW 03:45:47 10° ESE daylight
20 Aug - 05:18:59 10° W 05:22:48 25° SW 05:26:39 10° SSE daylight
20 Aug - 21:17:30 10° SSE 21:19:08 12° SE 21:20:46 10° ESE night (unlit)
20 Aug - 22:56:03 10° SW 23:00:28 46° SSE 23:04:56 10° ENE visible
21 Aug - 00:37:53 10° W 00:42:33 81° N 00:47:16 10° ENE visible
21 Aug - 02:20:15 10° WNW 02:24:56 80° N 02:29:41 10° E visible
21 Aug - 04:02:32 10° WNW 04:07:02 46° SSW 04:11:34 10° SE daylight
21 Aug - 05:46:30 10° WSW 05:48:25 12° SW 05:50:19 10° SSW daylight
21 Aug - 21:41:02 10° SSW 21:44:43 24° SE 21:48:26 10° E visible
21 Aug - 23:21:48 10° WSW 23:26:26 74° SSE 23:31:06 10° ENE visible
22 Aug - 01:04:04 10° W 01:08:44 73° N 01:13:26 10° E visible
22 Aug - 02:46:22 10° WNW 02:51:03 77° SSW 02:55:47 10° ESE daylight
22 Aug - 04:28:57 10° W 04:32:50 26° SW 04:36:46 10° SSE daylight
22 Aug - 20:28:09 10° SE 20:29:12 11° SE 20:30:15 10° ESE night (unlit)
22 Aug - 22:06:08 10° SW 22:10:30 43° SSE 22:14:55 10° ENE visible
22 Aug - 23:47:53 10° W 23:52:33 82° N 23:57:14 10° ENE visible
23 Aug - 01:30:15 10° WNW 01:34:55 79° N 01:39:39 10° E visible
23 Aug - 03:12:31 10° WNW 03:17:03 49° SSW 03:21:36 10° SE daylight
23 Aug - 04:56:14 10° WSW 04:58:28 13° SW 05:00:42 10° SSW daylight
23 Aug - 20:51:12 10° S 20:54:46 22° SE 20:58:21 10° E night (unlit)
23 Aug - 22:31:50 10° WSW 22:36:27 71° SSE 22:41:05 10° ENE visible
24 Aug - 00:14:04 10° W 00:18:43 73° N 00:23:25 10° E visible
24 Aug - 01:56:22 10° WNW 02:01:03 80° SSW 02:05:46 10° ESE visible
24 Aug - 03:38:54 10° W 03:42:52 28° SW 03:46:52 10° SSE daylight
24 Aug - 21:16:12 10° SW 21:20:32 41° SSE 21:24:53 10° E night (unlit)
24 Aug - 22:57:53 10° W 23:02:32 84° NNW 23:07:13 10° ENE visible
25 Aug - 00:40:15 10° W 00:44:55 78° N 00:49:37 10° E visible
25 Aug - 02:22:31 10° WNW 02:27:04 52° SSW 02:31:38 10° SE visible
25 Aug - 04:06:01 10° WSW 04:08:31 14° SW 04:11:01 10° SSW daylight
25 Aug - 20:01:23 10° S 20:04:49 21° SE 20:08:16 10° E night (unlit)
25 Aug - 21:41:52 10° WSW 21:46:27 68° SSE 21:51:04 10° ENE night (unlit)
25 Aug - 23:24:04 10° W 23:28:43 73° N 23:33:23 10° E visible
26 Aug - 01:06:23 10° WNW 01:11:04 83° SSW 01:15:45 10° ESE visible
26 Aug - 02:48:51 10° W 02:52:54 29° SW 02:56:58 10° SSE daylight
26 Aug - 20:26:17 10° SW 20:30:33 38° SSE 20:34:51 10° E night (unlit)
26 Aug - 22:07:53 10° WSW 22:12:32 86° NNW 22:17:13 10° ENE visible
26 Aug - 23:50:15 10° W 23:54:54 76° N 23:59:36 10° E visible
27 Aug - 01:32:31 10° WNW 01:37:04 54° SSW 01:41:39 10° SE visible
27 Aug - 03:15:50 10° W 03:18:34 15° SW 03:21:18 10° S daylight
27 Aug - 19:11:35 10° S 19:14:52 19° SE 19:18:10 10° E night (unlit)
27 Aug - 20:51:53 10° WSW 20:56:28 65° SSE 21:01:04 10° ENE night (unlit)
27 Aug - 22:34:04 10° W 22:38:42 73° N 22:43:22 10° E visible
28 Aug - 00:16:23 10° WNW 00:21:03 86° SSW 00:25:45 10° ESE visible
28 Aug - 01:58:49 10° W 02:02:56 31° SW 02:07:04 10° SSE visible
28 Aug - 19:36:22 10° SSW 19:40:35 36° SSE 19:44:49 10° E night (unlit)
28 Aug - 21:17:54 10° WSW 21:22:32 88° NNW 21:27:12 10° ENE night (unlit)
28 Aug - 23:00:15 10° W 23:04:54 75° N 23:09:35 10° E visible
